Location: Warszawa
(52.2500°N, 21.0000°E)
Time: 14:55:52
(UTC+01:00)

Vanguard 2 - Pass Details

Date: 04 October 2023
Orbit: 553 x 2923 km, 32.9° (Epoch: 30 November)

Event Time Altitude Azimuth Distance (km) Brightness Sun altitude
Rises 22:27:11 0° 266° (W) 6,226 12.5 -36.4°
Reaches altitude 10° 22:33:47 10° 249° (WSW) 4,759 11.7 -37.0°
Enters shadow 22:39:43 16° 222° (SW) 3,779 10.9 -37.5°
